Flag for Mozambique Weather past 2 weeks in Beira, Mozambique

Now
68 °F

Passing clouds.


Feels Like: 68 °F
Forecast: 67 / 85 °F
Wind: 1 mph from West

Location: Beira Airport

Current Time: Sep 16, 2014 at 5:47:24 AM

Latest Report: Sep 16, 2014 at 5:00 AM


Visibility: N/A

Pressure: 30.04 "Hg

Humidity: 100%

Dew point: 68 °F

Location of BeiraLocation

Historic Weather in Beira — Graph

°F

Beira temperature yesterday

Maximum temperature yesterday: 81 °F (at 11:00 AM)
Minimum temperature yesterday: 68 °F (at 5:00 AM)
Average temperature yesterday: 76 °F

Past Weeks' High & Low Weather Summary

 TemperatureHumidityPressure
High84 °F (Sep 13, 12:00 PM)100% (Sep 4, 4:00 AM)30.27 "Hg (Sep 4, 4:00 AM)
Low64 °F (Sep 1, 7:00 AM)50% (Sep 1, 1:00 PM)29.95 "Hg (Sep 10, 3:00 PM)
Average74 °F81%30.10 "Hg
* Reported Sep 1 5:00 AM — Sep 16 4:00 AM, Beira, Weather by CustomWeather, © 2014

Note: Actual official high and low records may vary slightly from our data, if they occured in-between our weather recording intervals... More about our weather records

Advertising

Beira weather history for previous 24 hours

 ConditionsComfort  
Time TempWeatherWind HumidityBarometerVisibility
4:00 AM
Sep 16
70 °FPassing clouds.5 mph94%30.04 "HgN/A
2:00 AM73 °FPassing clouds.7 mph83%30.04 "HgN/A
1:00 AM73 °FPassing clouds.7 mph83%30.04 "HgN/A
12:00 AM73 °FPassing clouds.7 mph83%30.07 "HgN/A
11:00 PM
Sep 15
73 °FPassing clouds.7 mph83%30.07 "HgN/A
10:00 PM73 °FPassing clouds.9 mph83%30.07 "HgN/A
9:00 PM73 °FClear.8 mph83%30.04 "Hg10 mi
5:00 PM77 °FPassing clouds.13 mph83%30.04 "HgN/A
4:00 PM79 °FSunny.14 mph79%30.01 "Hg10 mi
3:00 PM81 °FSunny.13 mph74%30.01 "Hg10 mi
2:00 PM81 °FPassing clouds.12 mph70%30.04 "HgN/A
1:00 PM81 °FPassing clouds.10 mph70%30.04 "HgN/A
12:00 PM81 °FPassing clouds.7 mph70%30.07 "HgN/A
11:00 AM81 °FPassing clouds.7 mph74%30.09 "HgN/A
10:00 AM75 °FScattered clouds.7 mph89%30.09 "HgN/A
9:00 AM75 °FPartly sunny.5 mph89%30.12 "HgN/A
8:00 AM72 °FFog.3 mph94%30.12 "Hg1 mi
5:00 AM68 °FFog.6 mph100%30.07 "Hg1 mi
Weather by CustomWeather, © 2014

See weather overviewHow to use our weather pages